TimeEST,TemperatureF,Dew PointF,Humidity,Sea Level PressureIn,VisibilityMPH,Wind Direction,Wind SpeedMPH,Gust SpeedMPH,PrecipitationIn,Events,Conditions,WindDirDegrees,DateUTC
12:15 AM,46.4,39.2,76,30.40,10.0,NE,10.4,-,N/A,,Overcast,50,2013-12-08 05:15:00
12:35 AM,46.4,39.2,76,30.39,10.0,ENE,4.6,-,N/A,,Overcast,60,2013-12-08 05:35:00
12:55 AM,46.4,39.2,76,30.38,10.0,ENE,4.6,-,N/A,,Overcast,70,2013-12-08 05:55:00
1:15 AM,46.4,39.2,76,30.38,10.0,ENE,6.9,-,N/A,,Overcast,70,2013-12-08 06:15:00
1:35 AM,46.4,39.2,76,30.38,10.0,NE,8.1,-,N/A,,Overcast,50,2013-12-08 06:35:00
1:55 AM,44.6,39.2,81,30.38,10.0,ENE,3.5,-,N/A,,Overcast,60,2013-12-08 06:55:00
2:15 AM,44.6,39.2,81,30.36,10.0,ENE,5.8,-,N/A,,Overcast,60,2013-12-08 07:15:00
2:35 AM,44.6,37.4,76,30.37,10.0,East,3.5,-,N/A,,Overcast,80,2013-12-08 07:35:00
2:55 AM,44.6,37.4,76,30.36,10.0,ENE,3.5,-,N/A,,Overcast,60,2013-12-08 07:55:00
3:15 AM,44.6,37.4,76,30.36,10.0,NE,8.1,-,N/A,,Overcast,50,2013-12-08 08:15:00
3:35 AM,44.6,37.4,76,30.37,10.0,ENE,5.8,-,N/A,,Overcast,60,2013-12-08 08:35:00
3:55 AM,44.6,37.4,76,30.36,10.0,ENE,4.6,-,N/A,,Overcast,60,2013-12-08 08:55:00
4:15 AM,44.6,35.6,71,30.37,10.0,ENE,5.8,-,N/A,,Overcast,70,2013-12-08 09:15:00
4:35 AM,42.8,35.6,76,30.36,10.0,NE,5.8,-,N/A,,Overcast,50,2013-12-08 09:35:00
4:55 AM,42.8,35.6,76,30.36,10.0,ENE,5.8,-,N/A,,Overcast,60,2013-12-08 09:55:00
5:15 AM,42.8,35.6,76,30.37,10.0,ENE,5.8,-,N/A,,Overcast,60,2013-12-08 10:15:00
5:35 AM,42.8,37.4,81,30.36,10.0,ENE,5.8,-,N/A,,Overcast,60,2013-12-08 10:35:00
5:55 AM,41.0,37.4,87,30.36,10.0,NE,5.8,-,N/A,,Overcast,50,2013-12-08 10:55:00
6:15 AM,41.0,37.4,87,30.38,10.0,ENE,6.9,-,N/A,,Overcast,60,2013-12-08 11:15:00
6:35 AM,41.0,39.2,93,30.37,5.0,ENE,4.6,-,N/A,,Overcast,70,2013-12-08 11:35:00
6:55 AM,39.2,39.2,100,30.38,3.0,ENE,4.6,-,N/A,,Overcast,70,2013-12-08 11:55:00
7:15 AM,39.2,39.2,100,30.39,3.0,NE,4.6,-,N/A,Rain,Light Rain,40,2013-12-08 12:15:00
7:35 AM,39.2,39.2,100,30.39,3.0,NE,4.6,-,N/A,,Overcast,50,2013-12-08 12:35:00
7:55 AM,39.2,39.2,100,30.39,1.5,NNE,8.1,-,0.01,Rain,Light Rain,30,2013-12-08 12:55:00
8:15 AM,39.2,39.2,100,30.40,1.5,NE,6.9,-,N/A,Rain,Light Rain,40,2013-12-08 13:15:00
8:35 AM,39.2,39.2,100,30.39,1.5,NE,4.6,-,N/A,Rain,Light Rain,50,2013-12-08 13:35:00
8:55 AM,39.2,39.2,100,30.40,1.8,NE,5.8,-,N/A,Rain,Light Rain,50,2013-12-08 13:55:00
9:15 AM,39.2,39.2,100,30.42,2.0,NNE,5.8,-,N/A,Rain,Light Rain,20,2013-12-08 14:15:00
9:35 AM,39.2,39.2,100,30.41,1.5,ENE,3.5,-,N/A,Rain,Light Rain,60,2013-12-08 14:35:00
9:55 AM,39.2,39.2,100,30.40,2.5,NE,3.5,-,N/A,,Overcast,50,2013-12-08 14:55:00
10:15 AM,39.2,39.2,100,30.40,3.0,Calm,Calm,-,N/A,,Overcast,0,2013-12-08 15:15:00
10:35 AM,39.2,39.2,100,30.39,5.0,ENE,4.6,-,N/A,,Overcast,60,2013-12-08 15:35:00
10:55 AM,39.2,39.2,100,30.38,3.0,NE,5.8,-,N/A,,Overcast,50,2013-12-08 15:55:00
11:15 AM,39.2,39.2,100,30.39,5.0,North,8.1,-,N/A,,Overcast,10,2013-12-08 16:15:00
11:35 AM,37.4,37.4,100,30.39,3.0,NNE,11.5,-,N/A,Rain,Light Rain,30,2013-12-08 16:35:00
11:55 AM,37.4,37.4,100,30.39,2.0,NE,3.5,-,0.01,Rain,Light Rain,40,2013-12-08 16:55:00
12:15 PM,39.2,39.2,100,30.39,1.5,NE,5.8,-,N/A,,Overcast,40,2013-12-08 17:15:00
12:35 PM,39.2,39.2,100,30.38,1.2,NE,6.9,-,N/A,,Overcast,40,2013-12-08 17:35:00
12:55 PM,37.4,37.4,100,30.37,1.2,NNE,9.2,-,N/A,,Overcast,30,2013-12-08 17:55:00
1:15 PM,37.4,37.4,100,30.36,1.8,NE,5.8,-,N/A,,Overcast,50,2013-12-08 18:15:00
1:35 PM,37.4,37.4,100,30.34,1.8,NNE,4.6,-,N/A,Rain,Light Rain,30,2013-12-08 18:35:00
1:55 PM,37.4,37.4,100,30.34,5.0,NE,4.6,-,0.01,,Overcast,40,2013-12-08 18:55:00
2:15 PM,37.4,37.4,100,30.33,5.0,NNE,8.1,-,N/A,,Overcast,30,2013-12-08 19:15:00
2:35 PM,37.4,37.4,100,30.32,8.0,NE,4.6,-,N/A,,Overcast,40,2013-12-08 19:35:00
2:55 PM,37.4,37.4,100,30.32,10.0,NE,6.9,-,N/A,,Overcast,40,2013-12-08 19:55:00
3:15 PM,37.4,37.4,100,30.32,5.0,NE,6.9,-,N/A,,Overcast,40,2013-12-08 20:15:00
3:35 PM,37.4,37.4,100,30.32,10.0,NNE,8.1,-,N/A,,Overcast,30,2013-12-08 20:35:00
3:55 PM,37.4,37.4,100,30.32,4.0,NNE,8.1,-,N/A,,Overcast,30,2013-12-08 20:55:00
4:15 PM,37.4,37.4,100,30.32,4.0,NE,6.9,-,N/A,,Overcast,40,2013-12-08 21:15:00
4:35 PM,37.4,37.4,100,30.33,4.0,NNE,10.4,-,N/A,,Overcast,30,2013-12-08 21:35:00
4:55 PM,37.4,37.4,100,30.34,7.0,NE,6.9,-,N/A,,Overcast,40,2013-12-08 21:55:00
5:15 PM,37.4,37.4,100,30.34,8.0,NE,5.8,-,N/A,,Overcast,50,2013-12-08 22:15:00
5:35 PM,37.4,37.4,100,30.33,6.0,NE,6.9,-,N/A,,Overcast,40,2013-12-08 22:35:00
5:55 PM,37.4,37.4,100,30.33,3.0,NE,6.9,-,N/A,,Overcast,40,2013-12-08 22:55:00
6:15 PM,37.4,37.4,100,30.31,8.0,NE,4.6,-,N/A,,Overcast,50,2013-12-08 23:15:00
6:35 PM,37.4,37.4,100,30.31,8.0,NE,3.5,-,N/A,,Overcast,50,2013-12-08 23:35:00
6:55 PM,35.6,35.6,100,30.31,5.0,Calm,Calm,-,N/A,,Overcast,0,2013-12-08 23:55:00
7:15 PM,35.6,35.6,100,30.34,6.0,NE,4.6,-,N/A,,Overcast,40,2013-12-09 00:15:00
7:35 PM,35.6,35.6,100,30.34,7.0,NE,4.6,-,N/A,,Overcast,40,2013-12-09 00:35:00
7:55 PM,35.6,35.6,100,30.34,6.0,NNE,5.8,-,N/A,,Overcast,30,2013-12-09 00:55:00
8:15 PM,35.6,35.6,100,30.34,3.0,NNE,4.6,-,N/A,,Overcast,30,2013-12-09 01:15:00
8:35 PM,35.6,35.6,100,30.33,2.0,NE,3.5,-,N/A,,Overcast,40,2013-12-09 01:35:00
8:55 PM,35.6,35.6,100,30.33,1.8,NE,5.8,-,N/A,,Overcast,40,2013-12-09 01:55:00
9:15 PM,35.6,35.6,100,30.33,2.0,NNE,5.8,-,N/A,Rain,Light Rain,20,2013-12-09 02:15:00
9:35 PM,35.6,35.6,100,30.33,2.5,Calm,Calm,-,N/A,,Overcast,0,2013-12-09 02:35:00
9:55 PM,35.6,35.6,100,30.33,1.8,Calm,Calm,-,N/A,,Overcast,0,2013-12-09 02:55:00
10:15 PM,35.6,35.6,100,30.32,2.0,Calm,Calm,-,N/A,,Overcast,0,2013-12-09 03:15:00
10:35 PM,35.6,35.6,100,30.32,2.5,Calm,Calm,-,N/A,,Overcast,0,2013-12-09 03:35:00
10:55 PM,35.6,35.6,100,30.31,7.0,NNE,3.5,-,N/A,,Overcast,30,2013-12-09 03:55:00
11:15 PM,35.6,35.6,100,30.31,7.0,NE,3.5,-,N/A,,Overcast,40,2013-12-09 04:15:00
11:35 PM,35.6,35.6,100,30.30,3.0,NNE,4.6,-,N/A,,Overcast,30,2013-12-09 04:35:00
11:55 PM,35.6,35.6,100,30.29,4.0,Calm,Calm,-,N/A,,Overcast,0,2013-12-09 04:55:00